Flag for Norway Weather past 2 weeks in Langevåg, Norway

Now
63 °F

Scattered showers. Partly sunny.


Feels Like: 63 °F
Forecast: 58 / 63 °F
Wind: 10 mph from Southwest

Location: Alesund / Vigra

Current Time: Jul 30, 2014 at 9:56:44 PM

Latest Report: Jul 30, 2014 at 9:20 PM


Visibility: N/A

Pressure: 29.53 "Hg

Humidity: 68%

Dew point: 52 °F

Location of LangevågLocation

Historic Weather in Langevåg — Graph

°F

Langevåg temperature yesterday

Maximum temperature yesterday: 66 °F (at 2:50 PM)
Minimum temperature yesterday: 59 °F (at 12:20 AM)
Average temperature yesterday: 62 °F

Past Weeks' High & Low Weather Summary

 TemperatureHumidityPressure
High82 °F (Jul 21, 12:50 PM)100% (Jul 15, 11:20 PM)30.39 "Hg (Jul 15, 11:20 PM)
Low55 °F (Jul 16, 10:50 PM)32% (Jul 21, 12:50 PM)29.56 "Hg (Jul 30, 3:20 PM)
Average64 °F83%30.05 "Hg
* Reported Jul 15 8:20 PM — Jul 30 8:20 PM, Langevåg, Weather by CustomWeather, © 2014

Note: Actual official high and low records may vary slightly from our data, if they occured in-between our weather recording intervals... More about our weather records

Advertising

Langevåg weather history for previous 24 hours

 ConditionsComfort  
Time TempWeatherWind HumidityBarometerVisibility
8:20 PM
Jul 30
64 °FBroken clouds.10 mph64%29.56 "HgN/A
7:50 PM64 °FBroken clouds.12 mph64%29.56 "HgN/A
7:20 PM64 °FPartly sunny.12 mph64%29.56 "HgN/A
6:50 PM64 °FScattered showers. Partly sunny.13 mph60%29.56 "HgN/A
6:20 PM64 °FPartly sunny.10 mph64%29.56 "HgN/A
5:50 PM64 °FBroken clouds.10 mph64%29.56 "HgN/A
5:20 PM64 °FScattered showers. Broken clouds.17 mph68%29.56 "HgN/A
4:50 PM61 °FLight rain. Partly sunny.23 mph77%29.56 "HgN/A
4:20 PM63 °FBroken clouds.16 mph73%29.56 "HgN/A
3:50 PM63 °FPartly sunny.15 mph77%29.56 "HgN/A
3:20 PM63 °FScattered showers. Broken clouds.14 mph77%29.56 "HgN/A
2:50 PM64 °FScattered showers. Broken clouds.12 mph73%29.59 "HgN/A
2:20 PM63 °FBroken clouds.17 mph77%29.59 "HgN/A
1:50 PM63 °FMore clouds than sun.12 mph77%29.59 "HgN/A
1:20 PM64 °FPartly sunny.7 mph73%29.59 "HgN/A
12:50 PM64 °FScattered showers. Partly sunny.2 mph73%29.59 "HgN/A
12:20 PM64 °FBroken clouds.2 mph78%29.59 "HgN/A
11:50 AM64 °FPartly sunny.5 mph78%29.59 "HgN/A
11:20 AM66 °FScattered clouds.6 mph68%29.59 "HgN/A
10:50 AM64 °FPartly sunny.2 mph73%29.59 "HgN/A
10:20 AM64 °FBroken clouds.3 mph73%29.59 "HgN/A
9:50 AM64 °FScattered clouds.3 mph73%29.59 "HgN/A
9:20 AM64 °FPassing clouds.5 mph73%29.59 "HgN/A
8:50 AM63 °FScattered clouds.3 mph77%29.62 "HgN/A
8:20 AM63 °FPartly sunny.6 mph77%29.62 "HgN/A
7:50 AM61 °FPartly sunny.8 mph83%29.62 "HgN/A
7:20 AM61 °FBroken clouds.9 mph83%29.62 "HgN/A
6:50 AM59 °FBroken clouds.7 mph94%29.62 "HgN/A
6:20 AM59 °FLight rain. Partly sunny.6 mph94%29.62 "HgN/A
5:50 AM59 °FDrizzle. Partly sunny.10 mph94%29.62 "HgN/A
5:20 AM59 °FOvercast.15 mph94%29.62 "HgN/A
4:50 AM61 °FPartly cloudy.14 mph88%29.65 "HgN/A
4:20 AM61 °FOvercast.6 mph88%29.65 "HgN/A
3:50 AM59 °FOvercast.6 mph94%29.65 "HgN/A
3:20 AM59 °FPartly cloudy.9 mph94%29.65 "HgN/A
2:50 AM61 °FPassing clouds.2 mph94%29.65 "HgN/A
2:20 AM61 °FOvercast.7 mph94%29.65 "HgN/A
1:50 AM59 °FPartly cloudy.7 mph94%29.68 "HgN/A
1:20 AM59 °FPassing clouds.5 mph94%29.68 "HgN/A
12:50 AM59 °FPassing clouds.3 mph94%29.68 "HgN/A
12:20 AM59 °FPassing clouds.3 mph94%29.71 "HgN/A
11:50 PM
Jul 29
59 °FPassing clouds.6 mph94%29.71 "HgN/A
11:20 PM61 °FBroken clouds.3 mph94%29.71 "HgN/A
10:50 PM63 °FBroken clouds.2 mph88%29.71 "HgN/A
10:20 PM63 °FPartly sunny.3 mph83%29.74 "HgN/A
9:50 PM63 °FBroken clouds.5 mph88%29.74 "HgN/A
9:20 PM63 °FBroken clouds.5 mph88%29.74 "HgN/A
Weather by CustomWeather, © 2014

See weather overviewHow to use our weather pages